SCP
0 0 0 0 0 0 0 0 0 0 0 0 0 0 0 0 0 0 0 0 0 0 0 0 0 0 0 0 0 0 0 0 0 0 0 0 0 0 0 0 0 1 1
0 0 0 0 0 0 0 0 0 0 0 0 0 0 0 0 0 0 0 0 0 0 0 0 0 0 0 0 0 0 0 0 0 0 0 0 0 0 0 0 0 0 1
0 0 0 0 0 0 0 0 0 0 0 0 0 0 0 0 0 0 0 0 0 0 0 0 0 0 0 0 0 0 0 0 0 0 0 0 0 0 0 0 0 0 0
0 0 0 0 0 0 0 0 0 0 0 0 0 0 0 0 0 0 0 0 0 0 0 0 0 0 0 0 0 0 0 0 0 0 0 0 0 0 0 0 0 0 0
0 0 0 0 0 0 0 0 0 0 0 0 0 0 0 0 0 0 0 0 0 0 0 0 0 0 0 0 0 0 0 0 0 0 0 0 0 0 0 0 0 0 0
0 0 0 0 0 0 0 0 0 0 0 0 0 0 0 0 0 0 0 0 0 0 0 0 0 0 0 0 0 0 0 0 0 0 0 0 0 0 0 0 0 0 1
0 0 0 0 0 0 0 0 0 0 0 0 0 0 0 0 0 0 0 0 0 0 0 0 0 0 0 0 0 0 0 0 0 0 0 0 0 0 0 0 0 1 1
0 0 0 0 0 0 0 0 0 0 0 0 0 0 0 0 0 0 0 0 0 0 0 0 0 0 0 0 0 0 0 0 0 0 0 0 0 0 0 0 0 1 1
0 0 0 0 0 0 0 0 0 0 0 0 0 0 0 0 0 0 0 0 0 0 0 0 0 0 0 0 0 0 0 0 0 0 0 0 0 0 0 0 0 1 1
0 0 0 0 0 0 0 0 0 0 0 0 0 0 0 0 0 0 0 0 0 0 0 0 0 0 0 0 0 0 0 0 0 0 0 0 0 0 0 0 0 1 1
0 0 0 0 0 0 0 0 0 0 0 0 0 0 0 0 0 0 0 0 0 0 0 0 0 0 0 0 0 0 0 0 0 0 0 0 0 0 0 0 0 1 1
0 0 0 0 0 0 0 0 0 0 0 0 0 0 0 0 0 0 0 0 0 0 0 0 0 0 0 0 0 0 0 0 0 0 0 0 0 0 0 0 0 1 1
0 0 0 0 0 0 0 0 0 0 0 0 0 0 0 0 0 0 0 0 0 0 0 0 0 0 0 0 0 0 0 0 0 0 0 0 0 0 0 0 0 0 1
0 0 0 0 0 0 0 0 0 0 0 0 0 0 0 0 0 0 0 0 0 0 0 0 0 0 0 0 0 0 0 0 0 0 0 0 0 0 0 0 0 0 0
0 0 0 0 0 0 0 0 0 0 0 0 0 0 0 0 0 0 0 0 0 0 0 0 0 0 0 0 0 0 0 0 0 0 0 0 0 0 0 0 0 0 0
0 0 0 0 0 0 0 0 0 0 0 0 0 0 0 0 0 0 0 0 0 0 0 0 0 0 0 0 0 0 0 0 0 0 0 0 0 0 0 0 0 0 0
0 0 0 0 0 0 0 0 0 0 0 0 0 0 0 0 0 0 0 0 0 0 0 0 0 0 0 0 0 0 0 0 0 0 0 0 0 0 0 0 0 0 0
0 0 0 0 0 0 0 0 0 0 0 0 0 0 0 0 0 0 0 0 0 0 0 0 0 0 0 0 0 0 0 0 0 0 0 0 0 0 0 0 0 0 0
0 0 0 0 0 0 0 0 0 0 0 0 0 0 0 0 0 0 0 0 0 0 0 0 0 0 0 0 0 0 0 0 0 0 0 0 0 0 0 0 0 0 0
0 0 0 0 0 0 0 0 0 0 0 0 0 0 0 0 0 0 0 0 0 0 0 0 0 0 0 0 0 0 0 0 0 0 0 0 0 0 0 0 0 0 0
0 0 0 0 0 0 0 0 0 0 0 0 0 0 0 0 0 0 0 0 0 0 0 0 0 0 0 0 0 0 0 0 0 0 0 0 0 0 0 0 0 0 0
0 0 0 0 0 0 0 0 0 0 0 0 0 0 0 0 0 0 0 0 0 0 0 0 0 0 0 0 0 0 0 0 0 0 0 0 0 0 0 0 0 0 0
0 0 0 0 0 0 0 0 0 0 0 0 0 0 0 0 0 0 0 0 0 0 0 0 0 0 0 0 0 0 0 0 0 0 0 0 0 0 0 0 0 0 0
0 0 0 0 0 0 0 0 0 0 0 0 0 0 0 0 0 0 0 0 0 0 0 0 0 0 0 0 0 0 0 0 0 0 0 0 0 0 0 0 0 0 0
0 0 0 0 0 0 0 0 0 0 0 0 0 0 0 0 0 0 0 0 0 0 0 0 0 0 0 0 0 0 0 0 0 0 0 0 0 0 0 0 0 0 0
0 0 0 0 0 0 0 0 0 0 0 0 0 0 0 0 0 0 0 0 0 0 0 0 0 0 0 0 0 0 0 0 0 0 0 0 0 0 0 0 0 0 0
Wind_Speed
4 4 3 3 3 3 3 3 3 3 4 4 4 4 5 5 4 4 4 8 11 12 13 13 13 13 12 12 11 11 10 10 10 9 9 10 10 10 11 11 12 13 13
5 4 4 4 4 3 3 3 4 4 3 3 4 4 5 5 5 5 4 5 9 11 12 13 12 12 12 12 11 11 10 10 9 8 8 8 9 10 11 11 12 12 13
6 5 4 4 4 4 4 3 4 3 3 3 4 5 4 5 5 5 5 4 4 7 9 11 11 11 11 11 11 11 10 10 9 9 9 9 9 10 10 10 11 12 12
7 6 5 5 4 4 4 3 3 3 3 3 4 4 4 4 5 5 4 4 3 3 5 8 9 9 10 10 10 10 10 10 10 10 9 9 9 10 10 10 11 11 12
8 7 6 5 5 4 4 4 4 3 4 4 4 4 4 4 5 4 4 4 4 3 3 4 6 6 8 9 10 10 10 10 10 9 9 9 9 9 10 10 11 12 12
8 8 6 6 5 4 5 4 5 4 3 3 3 4 4 4 4 4 4 3 3 3 2 2 2 3 5 8 9 9 10 10 10 9 9 9 9 10 10 11 11 12 12
8 8 6 6 6 6 6 6 4 4 4 2 2 3 4 4 4 3 3 2 2 2 1 1 1 1 2 5 7 8 9 9 9 9 9 9 10 10 10 11 12 12 12
8 7 8 6 6 5 6 6 5 3 3 3 2 2 3 3 2 2 1 1 1 1 1 1 1 1 1 1 4 7 8 8 9 9 9 10 10 10 11 11 12 12 13
7 7 7 7 6 6 6 6 6 6 4 3 4 3 2 3 3 2 1 0 0 0 1 1 1 1 1 1 2 5 7 7 8 8 9 10 11 11 11 12 12 13 13
6 6 6 6 6 6 6 6 6 5 5 4 3 4 4 3 2 3 1 1 1 1 1 1 1 1 1 1 2 4 5 5 6 7 9 10 11 11 12 12 13 13 14
5 5 6 5 5 5 6 5 5 6 5 5 4 3 4 4 4 4 4 2 1 1 1 1 1 1 2 2 2 4 5 6 6 7 8 9 10 11 11 12 13 13 14
3 4 5 5 5 5 5 5 5 6 5 5 4 4 3 3 3 4 5 4 3 1 1 1 1 1 2 2 3 6 6 6 7 7 7 8 9 10 11 12 12 13 13
4 5 5 5 4 5 5 4 4 5 5 5 5 4 4 3 2 3 4 3 3 2 1 1 1 1 2 2 3 6 6 6 7 7 7 7 8 9 10 11 11 12 12
4 3 4 4 4 4 4 4 4 4 3 4 4 4 3 2 2 3 3 3 3 2 1 2 0 1 1 1 3 4 3 6 7 7 7 7 8 9 10 10 11 11 12
2 3 3 4 4 4 4 4 3 3 3 3 3 3 3 2 2 2 2 3 4 4 4 2 1 1 1 1 3 3 3 5 6 7 7 8 8 9 10 10 11 11 12
3 3 2 3 3 3 3 3 2 2 3 2 2 2 2 2 1 1 2 2 3 4 3 1 1 1 1 2 4 3 3 6 6 7 7 8 8 9 9 10 11 11 12
3 3 3 3 2 2 2 2 3 2 3 2 2 2 2 2 1 1 1 1 2 3 4 2 1 1 1 2 3 3 3 3 4 6 7 8 8 9 10 10 10 11 11
2 2 3 3 2 2 1 2 2 2 2 2 2 2 2 1 1 1 1 1 1 1 2 4 2 1 2 2 3 3 3 3 4 6 7 8 9 9 10 10 11 11 11
2 2 2 2 2 2 2 2 2 2 1 1 1 1 1 1 1 0 1 1 1 0 1 2 2 1 1 2 3 3 4 3 4 5 7 8 9 10 10 10 11 11 11
3 2 2 2 2 2 3 3 3 3 2 2 2 2 1 1 1 0 0 0 0 0 0 1 1 1 1 2 2 3 5 4 5 4 5 7 8 10 10 11 11 11 11
3 2 3 3 2 2 2 3 3 3 3 3 3 3 3 3 3 2 1 1 1 0 0 0 1 1 2 2 3 3 4 5 4 2 4 5 5 5 6 9 10 11 11
3 3 3 3 3 2 4 4 4 3 3 3 3 3 3 3 4 5 5 4 2 0 1 1 1 1 2 2 3 3 3 4 4 3 4 5 3 4 5 5 10 12 11
4 4 3 3 3 4 5 5 6 4 3 3 3 2 2 3 3 3 5 6 5 4 2 0 1 1 2 2 2 3 3 3 4 4 4 4 3 4 5 7 11 11 12
3 3 3 3 3 4 5 6 7 5 4 4 3 3 3 3 3 3 3 4 4 4 3 2 1 1 1 2 2 2 3 3 4 3 3 4 4 5 6 6 8 10 12
3 3 3 3 3 3 5 6 6 4 4 4 4 3 3 3 4 5 4 3 3 4 5 6 5 5 5 5 4 2 2 2 3 3 2 3 4 6 5 4 5 10 13
3 3 3 3 3 3 4 5 5 3 4 3 3 3 4 4 5 5 3 3 2 2 3 4 5 5 4 4 5 2 1 1 2 3 2 3 3 4 5 4 5 6 7
Wind_Direction
197 199 204 206 211 208 213 224 234 246 255 261 259 260 265 265 263 259 266 272 278 286 291 294 296 298 300 301 300 299 300 299 298 295 291 291 289 288 285 282 277 275 273
196 198 207 210 213 212 214 218 227 236 245 251 263 261 260 263 261 260 257 269 273 280 287 292 295 299 302 304 305 305 303 304 305 306 302 298 296 294 292 289 285 281 278
200 201 207 212 214 209 211 219 233 237 250 253 261 263 262 261 262 261 259 258 267 276 281 288 293 297 302 303 304 305 307 309 309 308 306 302 300 298 296 293 290 287 284
203 202 209 216 207 200 203 213 223 235 248 253 262 264 261 262 262 261 258 255 255 264 276 284 290 296 302 305 307 308 310 311 313 313 311 308 304 301 301 298 296 293 289
206 206 214 215 200 202 209 214 217 218 242 253 259 265 263 260 261 262 259 258 254 256 262 285 291 299 304 308 311 312 314 315 318 321 322 319 314 309 306 302 300 298 294
206 208 215 213 201 208 215 213 220 218 229 243 263 271 265 260 258 257 258 260 259 261 269 282 294 307 313 312 314 315 317 319 322 327 328 326 322 318 313 309 305 303 300
205 207 213 211 207 214 219 214 216 223 229 212 256 288 276 259 255 258 255 255 274 284 309 307 311 315 319 320 324 324 323 323 326 328 329 327 323 320 317 316 313 311 306
207 207 210 212 210 215 219 214 209 213 215 187 199 271 307 323 315 279 273 263 286 339 351 342 344 324 310 322 337 329 327 327 329 330 330 328 326 324 321 319 319 317 315
209 209 210 212 211 211 220 218 210 213 226 209 199 208 244 268 306 311 329 3 8 24 329 350 358 339 332 329 322 331 332 330 329 330 330 329 328 327 324 321 320 319 318
207 210 210 210 215 216 222 220 213 215 217 225 211 216 224 208 247 296 301 344 36 7 330 349 345 337 332 325 332 335 336 333 332 332 331 330 330 330 329 326 325 323 320
204 209 209 211 217 221 225 223 217 217 217 223 215 203 221 228 224 245 270 275 324 309 304 305 321 333 342 349 340 345 345 341 341 342 339 339 337 336 335 333 332 330 327
205 211 208 211 217 221 224 224 219 218 220 221 221 212 204 211 215 226 249 265 265 254 256 303 342 345 346 358 355 353 351 351 352 351 349 346 342 341 339 336 335 334 333
211 216 208 212 217 222 222 217 213 217 217 214 218 223 220 225 217 219 238 256 264 258 226 47 359 343 3 0 349 350 349 353 350 350 351 348 346 344 340 338 338 338 340
210 205 200 205 211 214 214 212 212 217 210 210 212 211 212 221 220 219 221 230 260 262 231 237 271 9 358 356 352 355 347 353 349 348 347 346 346 343 342 339 339 339 340
190 188 189 196 206 209 209 205 208 207 197 202 203 202 212 222 219 226 229 224 232 256 261 229 230 337 337 356 351 339 334 347 346 343 345 346 344 341 338 339 336 336 335
174 171 176 187 199 202 198 194 195 195 187 195 191 188 207 219 221 225 226 237 236 243 254 243 237 326 347 352 349 333 333 343 344 342 342 345 340 338 337 336 336 335 334
165 167 172 172 177 182 185 181 188 178 183 194 190 188 204 195 205 232 225 228 241 241 251 267 269 329 331 343 338 332 336 334 334 341 340 346 342 340 338 338 338 336 334
158 163 163 158 156 162 159 160 177 179 183 188 190 183 206 198 203 222 215 224 243 248 243 262 283 314 306 327 326 329 338 338 333 340 344 345 342 340 339 339 337 335 334
126 123 132 145 148 150 145 146 150 134 127 131 133 157 181 165 196 237 207 221 245 261 247 251 277 304 314 342 337 338 339 341 340 339 342 341 338 338 339 338 336 334 332
114 114 118 124 127 127 122 120 117 115 111 95 86 87 83 89 97 80 11 298 20 17 315 274 291 323 332 348 352 341 336 341 332 336 339 337 332 337 338 334 331 330 329
97 104 108 104 101 110 112 118 122 122 119 104 82 72 70 68 66 63 53 37 58 58 10 335 303 330 339 350 337 330 320 323 318 337 331 328 326 325 328 327 326 327 327
89 88 89 95 86 80 98 108 112 115 115 110 97 82 76 72 70 70 65 56 54 39 289 284 288 304 315 321 327 331 325 326 314 333 331 312 316 311 316 314 319 325 327
93 86 80 79 75 77 85 93 97 99 96 93 95 92 75 60 60 75 68 57 48 47 51 284 274 294 308 317 321 323 319 306 290 307 315 295 306 304 311 313 318 322 329
104 96 86 83 80 79 84 92 94 91 90 84 81 83 86 67 53 73 75 64 47 37 39 42 38 355 356 356 341 304 295 302 299 304 325 294 307 306 309 303 308 324 333
103 100 97 91 93 92 91 94 94 98 95 86 80 76 83 81 72 80 84 77 57 38 41 49 48 43 39 36 29 27 353 336 308 306 340 314 307 310 301 293 305 324 329
114 106 96 88 96 99 100 97 93 101 102 95 85 78 77 81 75 76 80 85 71 34 34 31 36 33 27 26 30 23 335 314 314 297 332 330 313 329 314 302 311 316 321